Flag for U.S.A. Weather past 2 weeks in Tuba City, Arizona, U.S.A.

Now
88 °F

Sunny.


Feels Like: 85 °F
Forecast: 64 / 98 °F
Wind: 6 mph from North

Location: Grand Canyon National Park Airport

Current Time: Jul 1, 2015 at 2:14:35 PM

Latest Report: Jul 1, 2015 at 1:54 PM


Visibility: 10 mi

Pressure: 29.88 "Hg

Humidity: 22%

Dew point: 44 °F

Location of Tuba CityLocation

Historic Weather in Tuba City — Graph

°F

Tuba City temperature yesterday

Maximum temperature yesterday: 90 °F (at 5:54 PM)
Minimum temperature yesterday: 50 °F (at 5:54 AM)
Average temperature yesterday: 72 °F

Past Weeks' High & Low Weather Summary

 TemperatureHumidityPressure
High92 °F (Jun 20, 4:54 PM)93% (Jun 30, 5:54 AM)30.35 "Hg (Jun 30, 5:54 AM)
Low39 °F (Jun 20, 5:54 AM)6% (Jun 20, 1:54 PM)29.82 "Hg (Jun 30, 7:54 PM)
Average70 °F37%29.97 "Hg
* Reported Jun 16 12:54 PM — Jul 1 12:54 PM, Tuba City, Weather by CustomWeather, © 2015

Note: Actual official high and low records may vary slightly from our data, if they occured in-between our weather recording intervals... More about our weather records

Advertising

Tuba City weather history for previous 24 hours

 ConditionsComfort  
Time TempWeatherWind HumidityBarometerVisibility
12:54 PM
Wed, Jul 1
85 °FSunny.No wind34%29.90 "Hg10 mi
11:54 AM80 °FSunny.5 mph42%29.93 "Hg10 mi
10:54 AM76 °FSunny.6 mph52%29.94 "Hg10 mi
9:54 AM73 °FSunny.9 mph51%29.96 "Hg10 mi
8:54 AM70 °FSunny.5 mph61%29.96 "Hg10 mi
7:54 AM66 °FSunny.9 mph73%29.93 "Hg10 mi
6:54 AM55 °FSunny.No wind93%29.95 "Hg10 mi
5:54 AM58 °FClear.No wind84%29.90 "Hg10 mi
4:54 AM56 °FClear.No wind93%29.87 "Hg10 mi
3:54 AM57 °FPassing clouds.No wind87%29.88 "Hg10 mi
2:54 AM56 °FClear.No wind90%29.93 "Hg10 mi
1:54 AM59 °FClear.No wind87%29.91 "Hg10 mi
12:54 AM60 °FClear.No wind93%29.88 "Hg10 mi
11:54 PM
Tue, Jun 30
63 °FPassing clouds.3 mph90%29.88 "Hg10 mi
9:54 PM66 °FOvercast.3 mph78%29.87 "Hg10 mi
8:54 PM69 °FThunderstorms. Passing clouds.10 mph59%29.84 "Hg8 mi
7:54 PM83 °FScattered clouds.15 mph31%29.82 "Hg10 mi
6:54 PM89 °FPartly sunny.3 mph19%29.84 "Hg10 mi
5:54 PM90 °FPassing clouds.3 mph19%29.85 "Hg10 mi
4:54 PM89 °FSunny.3 mph22%29.87 "Hg10 mi
3:54 PM87 °FSunny.6 mph28%29.91 "Hg10 mi
2:54 PM78 °FLight rain. Scattered clouds.7 mph50%29.96 "Hg10 mi
Weather by CustomWeather, © 2015

See weather overviewHow to use our weather pages